星链-2390 (STARLINK-2390 )

导读 | 豆包AI

STARLINK-2390是美国SpaceX公司星链星座的V1.0批次卫星,于2021年3月11日发射入轨。星链星座旨在为全球提供高速低延迟宽带互联网服务,尤其覆盖偏远缺乏基础设施的区域。该卫星重量约227公斤,运行在近地轨道,配备氪离子推进系统与相控阵天线,可提供百兆级用户下行速率,是星链第一代组网的组成单元。截至2026年已服役超5年,接近设计寿命,逐步被新一代V2卫星替代。

基本信息
目录编号:
47809
目录名称:
STARLINK-2390
国际标识:
2021-018Y
轨道中心:
EARTH
卫星名称:
星链-2390
卫星全名:
星链-2390 (STARLINK-2390 )
卫星状态:
已陨落 最后检测时间 2024-01-11
发射日期:
2021-03-11 UTC
国别 :
美国 (US)
星等 :
--
轨道信息
数据来源 国际轨道数据
星历时间: 2024-01-11T10:32:45+0800
轨道信息已过期839天
半长轴: 6555.684km
偏心率: 0.000708
轨道倾角: 53.021°
近地点辐角 344.184°
升交点赤经 106.603°
平近点角 154.096°
近地点: 172.907km
远地点: 182.191km
周期: 88.041分钟
每日圈数: 16.355949
详细信息
固有亮度:
5
最大亮度:
2.5
卫星平台:
Starlink V1.0
覆盖范围:
全球
运营商:
太空探索技术公司
运营商所在国:
美国
制造商(研发单位):
太空探索技术公司
制造商所在国:
美国
使用方式:
暂无
卫星简介
星链(Starlink)计划是由太空探索技术公司(SpaceX)提出的一个巨型低轨卫星互联网星座项目,计划在2019年至2024年间在太空搭建由约1.2万颗卫星组成的“星链”网络,其中1584颗将部署在地球上空550千米处的近地轨道,并从2020年开始工作。该卫星已陨落。